Location: Newark
(43.6583°N, 1.6617°E)
Time: 03:19:50
(UTC+00:00)

Transit 4A - Pass Details

Date: 27 August 2019
Orbit: 865 x 980 km, 66.8° (Epoch: 19 September)

Event Time Altitude Azimuth Distance (km) Brightness Sun altitude
Rises 03:29:56 0° 314° (NW) 3,606 10.8 -17.4°
Reaches altitude 10° 03:33:25 10° 295° (WNW) 2,634 10.0 -16.9°
Enters shadow 03:34:52 14° 282° (WNW) 2,349 9.6 -16.7°
Maximum altitude 03:37:06 17° 257° (WSW) 2,153 - -16.3°
Drops below altitude 10° 03:40:44 10° 219° (SW) 2,573 - -15.8°
Sets 03:44:06 0° 200° (SSW) 3,487 - -15.3°
